Weather History for YFRT - February, 2013

Change the Weather History Date:

Sunday, February 10, 2013

  Actual Average Record
Temperature  
Mean Temperature 72 °F -  
Max Temperature 87 °F - - ()
Min Temperature 56 °F - - ()
Cooling Degree Days 6    
Growing Degree Days 22 (Base 50)    
Moisture  
Dew Point 55 °F    
Average Humidity 60    
Maximum Humidity 100    
Minimum Humidity 19    
Precipitation  
Precipitation 0.00 in - - ()
Sea Level Pressure  
Sea Level Pressure 30.07 in    
Wind  
Wind Speed 10 mph ()    
Max Wind Speed 24 mph    
Max Gust Speed 24 mph    
T = Trace of Precipitation, MM = Missing Value Source: Averaged Metar Reports

Daily Weather History Graph

Daily Weather History Graph

Search for Another Location

Airport or City:

Trip Planner

Search our weather history database for the weather conditions in past years. The results will help you decide how hot, cold, wet, or windy it might be!

Date:

Astronomy

Feb. 10, 2013 Rise Set
Actual Time 5:02 AM AWST 6:20 PM AWST
Civil Twilight 4:36 AM AWST 6:46 PM AWST
Nautical Twilight 4:06 AM AWST 7:16 PM AWST
Astronomical Twilight 3:35 AM AWST 7:47 PM AWST
Moon 4:45 AM AWST (2/10) 6:01 PM AWST (2/10)
Length of Visible Light 14h 09m
Length of Day
13h 18m
Waning Crescent, 0% of the Moon is Illuminated
Feb 10
Waning Crescent
Feb 10
New
Feb 18
First Quarter
Feb 26
Full
Mar 5
Last Quarter

Hourly Weather History & Observations

Time (AWST) Temp. Dew Point Humidity Pressure Visibility Wind Dir Wind Speed Gust Speed Precip Events Conditions
12:00 AM 61 °F 56 °F 80% 30.07 in - SE 6.9 mph - -  
12:00 AM 60.8 °F 57.2 °F 88% 30.09 in - SE 6.9 mph - N/A   Unknown
1:00 AM 59.0 °F 59.0 °F 100% 30.06 in - SE 6.9 mph - N/A   Unknown
2:00 AM 60 °F 59 °F 95% 30.04 in - SSE 6.9 mph - -  
2:00 AM 59.0 °F 59.0 °F 100% 30.06 in - SSE 6.9 mph - N/A   Unknown
3:00 AM 59 °F 58 °F 96% 30.06 in - SSE 6.9 mph - -  
3:00 AM 59.0 °F 59.0 °F 100% 30.06 in - SSE 6.9 mph - N/A   Unknown
4:00 AM 57.2 °F 57.2 °F 100% 30.06 in - SE 6.9 mph - N/A   Unknown
5:00 AM 58 °F 58 °F 99% 30.08 in - ESE 5.8 mph - -  
5:00 AM 59.0 °F 57.2 °F 94% 30.09 in - ESE 5.8 mph - N/A   Unknown
6:00 AM 62 °F 61 °F 97% 30.10 in - SE 8.1 mph - -  
6:00 AM 62.6 °F 60.8 °F 94% 30.09 in - SE 8.1 mph - N/A   Unknown
7:00 AM 68.0 °F 62.6 °F 83% 30.12 in - East 16.1 mph - N/A   Unknown
8:00 AM 71 °F 57 °F 53% 30.12 in - ESE 16.1 mph - -  
8:00 AM 71.6 °F 57.2 °F 60% 30.12 in - ESE 16.1 mph - N/A   Unknown
9:00 AM 74 °F 54 °F 38% 30.12 in - ESE 15.0 mph - -  
9:00 AM 73.4 °F 53.6 °F 50% 30.12 in - ESE 15.0 mph - N/A   Unknown
10:00 AM 77.0 °F 51.8 °F 41% 30.12 in - ESE 15.0 mph - N/A   Unknown
11:00 AM 79 °F 52 °F 28% 30.07 in - East 12.7 mph - -  
11:00 AM 78.8 °F 51.8 °F 39% 30.09 in - East 12.7 mph 24.2 mph N/A   Unknown
12:00 PM 81 °F 51 °F 25% 30.05 in - ESE 9.2 mph - -  
12:00 PM 80.6 °F 51.8 °F 37% 30.06 in - ESE 9.2 mph - N/A   Unknown
1:00 PM 84.2 °F 50.0 °F 30% 30.04 in - East 11.5 mph - N/A   Unknown
2:00 PM 86 °F 50 °F 19% 30.01 in - SSE 6.9 mph - -  
2:00 PM 86.0 °F 50.0 °F 29% 30.01 in - SSE 6.9 mph - N/A   Unknown
3:00 PM 87 °F 51 °F 19% 29.99 in - ESE 15.0 mph - -  
3:00 PM 87.8 °F 51.8 °F 29% 30.01 in - ESE 15.0 mph - N/A   Unknown
4:00 PM 84.2 °F 51.8 °F 33% 30.01 in - ESE 18.4 mph - N/A   Unknown
5:00 PM 81 °F 52 °F 26% 30.01 in - SE 19.6 mph - -  
5:00 PM 80.6 °F 51.8 °F 37% 30.01 in - SE 19.6 mph - N/A   Unknown
6:00 PM 76 °F 52 °F 33% 30.03 in - SE 24.2 mph - -  
6:00 PM 75.2 °F 51.8 °F 44% 30.04 in - SE 24.2 mph - N/A   Unknown
7:00 PM 71.6 °F 51.8 °F 50% 30.06 in - SE 20.7 mph - N/A   Unknown
8:00 PM 69.8 °F 53.6 °F 56% 30.09 in - ESE 20.7 mph - N/A   Unknown
9:00 PM 68 °F 55 °F 54% 30.08 in - ESE 18.4 mph - -  
9:00 PM 68.0 °F 55.4 °F 64% 30.09 in - ESE 18.4 mph - N/A   Unknown
10:00 PM 66.2 °F 55.4 °F 68% 30.09 in - ESE 17.3 mph - N/A   Unknown
11:00 PM 65 °F 56 °F 65% 30.08 in - ESE 16.1 mph - -  
11:00 PM 64.4 °F 55.4 °F 73% 30.09 in - ESE 16.1 mph - N/A   Unknown